When you browse on this site, cookies collect data to enhance your experience and personalize the content and advertising you see.
Visit our Privacy Policy to learn more. By continuing to use the site, you agree to this use of cookies and data.
  • în România
  • Lista ţărilor
  • Pe 7 zile
  • Temperatura apei
  • Meteo pe hartă
  • Widget-uri
  • user-avatar
    Intrare

    Meteo pe oră la Turek

    Astăzi, 21 August, Miercuri

    Timp Temperatura Precipitaţii Vânt Presiune Umiditate
    00:00 +17°C° 2.3 mm 5 m/s 754 mmHg 84%
    01:00 +16°C° 0 mm 5 m/s 754 mmHg 95%
    02:00 +16°C° 2.3 mm 5 m/s 755 mmHg 93%
    03:00 +16°C° 2.3 mm 6 m/s 755 mmHg 92%
    04:00 +16°C° 2.3 mm 6 m/s 755 mmHg 91%
    05:00 +16°C° 0.1 mm 6 m/s 756 mmHg 90%
    06:00 +15°C° 0.1 mm 5 m/s 756 mmHg 89%
    07:00 +15°C° 0.1 mm 5 m/s 757 mmHg 88%
    08:00 +16°C° 0.1 mm 5 m/s 757 mmHg 88%
    09:00 +17°C° 0.1 mm 4 m/s 758 mmHg 87%
    10:00 +17°C° 0.1 mm 4 m/s 759 mmHg 86%
    11:00 +17°C° 0 mm 3 m/s 759 mmHg 83%
    12:00 +18°C° 0 mm 3 m/s 759 mmHg 80%
    13:00 +18°C° 0 mm 2 m/s 759 mmHg 77%
    14:00 +19°C° 0 mm 2 m/s 759 mmHg 73%
    15:00 +20°C° 0 mm 2 m/s 759 mmHg 69%
    16:00 +21°C° 0 mm 2 m/s 759 mmHg 65%
    17:00 +20°C° 0 mm 2 m/s 759 mmHg 69%
    18:00 +20°C° 0 mm 1 m/s 759 mmHg 73%
    19:00 +19°C° 0 mm 1 m/s 759 mmHg 76%
    20:00 +18°C° 0 mm 1 m/s 760 mmHg 78%
    21:00 +18°C° 0 mm 1 m/s 760 mmHg 80%
    22:00 +16°C° 0 mm 1 m/s 760 mmHg 82%
    23:00 +16°C° 0 mm 1 m/s 760 mmHg 84%

    Mâine, 22 August, Joi

    Timp Temperatura Precipitaţii Vânt Presiune Umiditate
    00:00 +16°C° 0 mm 1 m/s 760 mmHg 85%
    01:00 +15°C° 0 mm 1 m/s 761 mmHg 87%
    02:00 +15°C° 0 mm 1 m/s 761 mmHg 87%
    03:00 +15°C° 0 mm 1 m/s 760 mmHg 87%
    04:00 +14°C° 0 mm 1 m/s 760 mmHg 88%
    05:00 +15°C° 0 mm 1 m/s 760 mmHg 85%
    06:00 +16°C° 0 mm 1 m/s 761 mmHg 82%
    07:00 +18°C° 0 mm 1 m/s 761 mmHg 79%
    08:00 +18°C° 0 mm 2 m/s 761 mmHg 73%
    09:00 +20°C° 0 mm 2 m/s 761 mmHg 67%
    10:00 +21°C° 0 mm 2 m/s 761 mmHg 62%
    11:00 +23°C° 0 mm 2 m/s 761 mmHg 57%
    12:00 +24°C° 0 mm 2 m/s 761 mmHg 53%
    13:00 +24°C° 0 mm 2 m/s 760 mmHg 49%
    14:00 +25°C° 0 mm 3 m/s 760 mmHg 49%
    15:00 +25°C° 0 mm 3 m/s 760 mmHg 48%
    16:00 +25°C° 0 mm 3 m/s 759 mmHg 48%
    17:00 +22°C° 0 mm 3 m/s 759 mmHg 54%
    18:00 +21°C° 0 mm 3 m/s 759 mmHg 60%
    19:00 +19°C° 0 mm 3 m/s 759 mmHg 67%
    20:00 +19°C° 0 mm 2 m/s 759 mmHg 68%
    21:00 +18°C° 0 mm 2 m/s 760 mmHg 69%
    22:00 +18°C° 0 mm 2 m/s 760 mmHg 70%
    23:00 +17°C° 0 mm 2 m/s 760 mmHg 71%

    Poimâine, 23 August, Vineri

    Timp Temperatura Precipitaţii Vânt Presiune Umiditate
    00:00 +17°C° 0 mm 2 m/s 760 mmHg 72%
    01:00 +16°C° 0 mm 2 m/s 760 mmHg 73%
    02:00 +16°C° 0 mm 2 m/s 760 mmHg 74%
    03:00 +15°C° 0 mm 2 m/s 760 mmHg 75%
    04:00 +15°C° 0 mm 2 m/s 760 mmHg 75%
    05:00 +16°C° 0 mm 2 m/s 760 mmHg 73%
    06:00 +17°C° 0 mm 3 m/s 760 mmHg 71%
    07:00 +18°C° 0 mm 3 m/s 760 mmHg 69%
    08:00 +20°C° 0 mm 3 m/s 760 mmHg 63%
    09:00 +21°C° 0 mm 3 m/s 760 mmHg 57%
    10:00 +23°C° 0 mm 4 m/s 760 mmHg 51%
    11:00 +25°C° 0 mm 4 m/s 760 mmHg 48%
    12:00 +26°C° 0 mm 4 m/s 759 mmHg 45%
    13:00 +26°C° 0 mm 4 m/s 759 mmHg 41%
    14:00 +26°C° 0 mm 4 m/s 759 mmHg 42%
    15:00 +26°C° 0 mm 4 m/s 758 mmHg 42%
    16:00 +26°C° 0 mm 4 m/s 758 mmHg 43%
    17:00 +25°C° 0 mm 4 m/s 758 mmHg 48%
    18:00 +22°C° 0 mm 3 m/s 758 mmHg 53%
    19:00 +21°C° 0 mm 3 m/s 758 mmHg 58%
    20:00 +20°C° 0 mm 3 m/s 758 mmHg 60%
    21:00 +19°C° 0 mm 3 m/s 758 mmHg 62%
    22:00 +19°C° 0 mm 3 m/s 758 mmHg 64%
    23:00 +18°C° 0 mm 3 m/s 758 mmHg 67%

    24 August, Sâmbătă

    Timp Temperatura Precipitaţii Vânt Presiune Umiditate
    00:00 +18°C° 0 mm 3 m/s 758 mmHg 70%
    01:00 +17°C° 0 mm 3 m/s 758 mmHg 73%
    02:00 +17°C° 0 mm 3 m/s 758 mmHg 74%
    03:00 +16°C° 0 mm 3 m/s 757 mmHg 76%
    04:00 +16°C° 0 mm 3 m/s 757 mmHg 78%
    05:00 +17°C° 0 mm 3 m/s 757 mmHg 75%
    06:00 +18°C° 0 mm 4 m/s 757 mmHg 72%
    07:00 +18°C° 0 mm 4 m/s 757 mmHg 69%
    08:00 +20°C° 0 mm 4 m/s 757 mmHg 64%
    09:00 +22°C° 0 mm 4 m/s 757 mmHg 59%
    10:00 +25°C° 0 mm 5 m/s 757 mmHg 54%
    11:00 +25°C° 0 mm 5 m/s 757 mmHg 51%
    12:00 +26°C° 0 mm 5 m/s 756 mmHg 49%
    13:00 +27°C° 0 mm 5 m/s 756 mmHg 46%
    14:00 +27°C° 0 mm 5 m/s 756 mmHg 47%
    15:00 +27°C° 0 mm 4 m/s 756 mmHg 47%
    16:00 +27°C° 0 mm 4 m/s 755 mmHg 48%
    17:00 +26°C° 0 mm 4 m/s 755 mmHg 53%
    18:00 +23°C° 0 mm 4 m/s 755 mmHg 58%
    19:00 +22°C° 0 mm 4 m/s 755 mmHg 63%
    20:00 +21°C° 0 mm 4 m/s 755 mmHg 64%
    21:00 +20°C° 0 mm 3 m/s 755 mmHg 65%
    22:00 +20°C° 0 mm 3 m/s 756 mmHg 66%
    23:00 +19°C° 0 mm 3 m/s 756 mmHg 68%

    25 August, Duminică

    Timp Temperatura Precipitaţii Vânt Presiune Umiditate
    00:00 +19°C° 0 mm 3 m/s 755 mmHg 70%
    01:00 +18°C° 0 mm 3 m/s 755 mmHg 73%
    02:00 +18°C° 0 mm 3 m/s 755 mmHg 74%
    03:00 +17°C° 0 mm 3 m/s 755 mmHg 74%
    04:00 +17°C° 0 mm 4 m/s 755 mmHg 75%
    05:00 +18°C° 0 mm 4 m/s 755 mmHg 72%
    06:00 +18°C° 0 mm 4 m/s 755 mmHg 69%
    07:00 +19°C° 0 mm 4 m/s 755 mmHg 67%
    08:00 +21°C° 0 mm 5 m/s 755 mmHg 63%
    09:00 +23°C° 0 mm 5 m/s 755 mmHg 60%
    10:00 +25°C° 0 mm 5 m/s 756 mmHg 56%
    11:00 +26°C° 0 mm 5 m/s 755 mmHg 55%
    12:00 +27°C° 0 mm 5 m/s 755 mmHg 53%
    13:00 +28°C° 0 mm 5 m/s 755 mmHg 52%
    14:00 +28°C° 0 mm 5 m/s 754 mmHg 52%
    15:00 +28°C° 0 mm 5 m/s 754 mmHg 52%
    16:00 +29°C° 0 mm 5 m/s 754 mmHg 52%
    17:00 +27°C° 0 mm 5 m/s 754 mmHg 56%
    18:00 +26°C° 0 mm 4 m/s 754 mmHg 60%
    19:00 +23°C° 0 mm 4 m/s 754 mmHg 64%
    20:00 +23°C° 0 mm 4 m/s 754 mmHg 65%
    21:00 +22°C° 0 mm 5 m/s 754 mmHg 66%
    22:00 +22°C° 0 mm 5 m/s 755 mmHg 67%
    23:00 +21°C° 0 mm 4 m/s 754 mmHg 69%

    26 August, Luni

    Timp Temperatura Precipitaţii Vânt Presiune Umiditate
    00:00 +21°C° 0 mm 4 m/s 754 mmHg 72%
    01:00 +20°C° 0 mm 4 m/s 754 mmHg 75%
    02:00 +20°C° 0 mm 4 m/s 754 mmHg 77%
    03:00 +19°C° 0 mm 3 m/s 753 mmHg 80%
    04:00 +19°C° 0 mm 3 m/s 753 mmHg 83%
    05:00 +19°C° 0 mm 4 m/s 753 mmHg 81%
    06:00 +20°C° 0 mm 4 m/s 753 mmHg 79%
    07:00 +21°C° 0 mm 4 m/s 753 mmHg 77%
    08:00 +23°C° 0 mm 4 m/s 753 mmHg 72%
    09:00 +25°C° 0 mm 4 m/s 753 mmHg 67%
    10:00 +27°C° 0 mm 4 m/s 753 mmHg 62%
    11:00 +28°C° 0 mm 4 m/s 752 mmHg 56%
    12:00 +30°C° 0 mm 4 m/s 752 mmHg 51%
    13:00 +31°C° 0 mm 3 m/s 752 mmHg 46%
    14:00 +33°C° 0 mm 3 m/s 752 mmHg 45%
    15:00 +33°C° 0 mm 3 m/s 751 mmHg 43%
    16:00 +33°C° 0 mm 3 m/s 751 mmHg 42%
    17:00 +31°C° 0 mm 3 m/s 751 mmHg 46%
    18:00 +29°C° 0 mm 2 m/s 751 mmHg 51%
    19:00 +28°C° 0 mm 2 m/s 750 mmHg 55%
    20:00 +27°C° 0.4 mm 2 m/s 750 mmHg 59%
    21:00 +26°C° 0.4 mm 2 m/s 751 mmHg 64%
    22:00 +25°C° 0.4 mm 3 m/s 751 mmHg 68%
    23:00 +24°C° 0.2 mm 3 m/s 751 mmHg 72%
    Arată mai mult